| time (UTC) | temp F | wind direction | speed MPH | gust MPH | rain 1hr in | rain 24hr in | rain mn in | humidity % | barometer mb |
| 20260507132813 | 69 | 68 | 5.0 | 8.0 | 0.00 | 0.00 | 0.00 | 62 | 1014.0 |
| 20260507132312 | 69 | 52 | 5.0 | 9.0 | 0.00 | 0.00 | 0.00 | 65 | 1014.0 |
| 20260507131812 | 69 | 81 | 4.0 | 10.0 | 0.00 | 0.00 | 0.00 | 62 | 1014.0 |
| 20260507131313 | 68 | 81 | 7.0 | 10.0 | 0.00 | 0.00 | 0.00 | 64 | 1014.0 |
| 20260507130813 | 68 | 67 | 3.0 | 9.0 | 0.00 | 0.00 | 0.00 | 64 | 1014.0 |
| 20260507130313 | 68 | 17 | 6.0 | 14.0 | 0.00 | 0.00 | 0.00 | 64 | 1014.0 |
| 20260507125813 | 69 | 50 | 9.0 | 13.0 | 0.00 | 0.00 | 0.00 | 61 | 1014.0 |
| 20260507125312 | 69 | 55 | 6.0 | 10.0 | 0.00 | 0.00 | 0.00 | 62 | 1014.0 |
| 20260507124813 | 68 | 15 | 7.0 | 10.0 | 0.00 | 0.00 | 0.00 | 65 | 1014.0 |
| 20260507124315 | 68 | 34 | 8.0 | 10.0 | 0.00 | 0.00 | 0.00 | 63 | 1014.0 |
| 20260507123812 | 68 | 57 | 7.0 | 14.0 | 0.00 | 0.00 | 0.00 | 62 | 1014.0 |
| 20260507123313 | 68 | 18 | 9.0 | 11.0 | 0.00 | 0.00 | 0.00 | 63 | 1014.0 |
| 20260507122812 | 68 | 39 | 8.0 | 11.0 | 0.00 | 0.00 | 0.00 | 63 | 1014.0 |
| 20260507122313 | 69 | 51 | 10.0 | 14.0 | 0.00 | 0.00 | 0.00 | 61 | 1014.0 |
| 20260507121812 | 68 | 47 | 6.0 | 11.0 | 0.00 | 0.00 | 0.00 | 64 | 1014.0 |
| 20260507121312 | 69 | 9 | 9.0 | 13.0 | 0.00 | 0.00 | 0.00 | 63 | 1014.0 |
| 20260507120812 | 68 | 24 | 6.0 | 11.0 | 0.00 | 0.00 | 0.00 | 64 | 1014.0 |
| 20260507120312 | 68 | 14 | 7.0 | 10.0 | 0.00 | 0.00 | 0.00 | 63 | 1014.0 |
| 20260507115812 | 68 | 36 | 9.0 | 11.0 | 0.00 | 0.00 | 0.00 | 63 | 1014.0 |
| 20260507115313 | 68 | 30 | 7.0 | 13.0 | 0.00 | 0.00 | 0.00 | 58 | 1014.0 |
| 20260507114813 | 68 | 10 | 8.0 | 15.0 | 0.00 | 0.00 | 0.00 | 62 | 1015.0 |
| 20260507114312 | 69 | 34 | 9.0 | 11.0 | 0.00 | 0.00 | 0.00 | 60 | 1014.0 |
| 20260507113812 | 68 | 29 | 5.0 | 9.0 | 0.00 | 0.00 | 0.00 | 58 | 1014.0 |
| 20260507113312 | 68 | 48 | 5.0 | 10.0 | 0.00 | 0.00 | 0.00 | 58 | 1014.0 |
| 20260507112812 | 68 | 30 | 8.0 | 10.0 | 0.00 | 0.00 | 0.00 | 62 | 1014.0 |
| 20260507112313 | 67 | 13 | 5.0 | 11.0 | 0.00 | 0.00 | 0.00 | 62 | 1015.0 |
| 20260507111812 | 67 | 37 | 5.0 | 13.0 | 0.00 | 0.00 | 0.00 | 66 | 1014.0 |
| 20260507111312 | 67 | 42 | 7.0 | 11.0 | 0.00 | 0.00 | 0.00 | 59 | 1014.0 |
| 20260507110813 | 67 | 51 | 5.0 | 11.0 | 0.00 | 0.00 | 0.00 | 62 | 1015.0 |
| 20260507110312 | 67 | 47 | 6.0 | 9.0 | 0.00 | 0.00 | 0.00 | 64 | 1015.0 |
| 20260507105813 | 67 | 46 | 7.0 | 14.0 | 0.00 | 0.00 | 0.00 | 58 | 1015.0 |
| 20260507105312 | 67 | 47 | 11.0 | 14.0 | 0.00 | 0.00 | 0.00 | 61 | 1014.0 |
| 20260507104812 | 68 | 32 | 9.0 | 13.0 | 0.00 | 0.00 | 0.00 | 62 | 1014.0 |
| 20260507104312 | 68 | 15 | 9.0 | 11.0 | 0.00 | 0.00 | 0.00 | 60 | 1015.0 |
| 20260507103813 | 68 | 47 | 7.0 | 11.0 | 0.00 | 0.00 | 0.00 | 65 | 1014.0 |
| 20260507103312 | 68 | 35 | 6.0 | 10.0 | 0.00 | 0.00 | 0.00 | 62 | 1014.0 |
| 20260507102812 | 69 | 53 | 8.0 | 14.0 | 0.00 | 0.00 | 0.00 | 64 | 1014.0 |
| 20260507102312 | 69 | 339 | 5.0 | 10.0 | 0.00 | 0.00 | 0.00 | 66 | 1015.0 |
| 20260507101812 | 68 | 46 | 7.0 | 11.0 | 0.00 | 0.00 | 0.00 | 61 | 1015.0 |
| 20260507101312 | 68 | 28 | 6.0 | 10.0 | 0.00 | 0.00 | 0.00 | 63 | 1014.0 |
| 20260507100813 | 68 | 17 | 6.0 | 11.0 | 0.00 | 0.00 | 0.00 | 63 | 1015.0 |
| 20260507100312 | 68 | 14 | 5.0 | 11.0 | 0.00 | 0.00 | 0.00 | 65 | 1015.0 |
| 20260507095326 | 68 | 62 | 5.0 | 8.0 | 0.00 | 0.00 | 0.00 | 67 | 1014.0 |
| 20260507094813 | 68 | 3 | 9.0 | 11.0 | 0.00 | 0.00 | 0.00 | 65 | 1014.0 |
| 20260507094312 | 68 | 27 | 5.0 | 10.0 | 0.00 | 0.00 | 0.00 | 64 | 1015.0 |
| 20260507093812 | 68 | 41 | 5.0 | 10.0 | 0.00 | 0.00 | 0.00 | 63 | 1015.0 |
| 20260507093312 | 68 | 50 | 5.0 | 9.0 | 0.00 | 0.00 | 0.00 | 64 | 1015.0 |
| 20260507092812 | 68 | 357 | 7.0 | 9.0 | 0.00 | 0.00 | 0.00 | 62 | 1015.0 |
| 20260507092312 | 68 | 27 | 5.0 | 13.0 | 0.00 | 0.00 | 0.00 | 64 | 1015.0 |
| 20260507091814 | 67 | 50 | 8.0 | 10.0 | 0.00 | 0.00 | 0.00 | 65 | 1014.0 |
| 20260507091312 | 67 | 44 | 8.0 | 13.0 | 0.00 | 0.00 | 0.00 | 63 | 1015.0 |
| 20260507090812 | 67 | 81 | 7.0 | 11.0 | 0.00 | 0.00 | 0.00 | 67 | 1014.0 |
| 20260507090312 | 67 | 77 | 7.0 | 15.0 | 0.00 | 0.00 | 0.00 | 67 | 1014.0 |
| 20260507085812 | 67 | 41 | 10.0 | 11.0 | 0.00 | 0.00 | 0.00 | 69 | 1015.0 |
| 20260507085313 | 66 | 31 | 8.0 | 14.0 | 0.00 | 0.00 | 0.00 | 69 | 1015.0 |
| 20260507084812 | 67 | 48 | 8.0 | 13.0 | 0.00 | 0.00 | 0.00 | 70 | 1015.0 |
| 20260507084312 | 69 | 47 | 7.0 | 10.0 | 0.00 | 0.00 | 0.00 | 67 | 1015.0 |
| 20260507083813 | 68 | 69 | 5.0 | 8.0 | 0.00 | 0.00 | 0.00 | 70 | 1014.0 |
| 20260507083313 | 69 | 19 | 3.0 | 8.0 | 0.00 | 0.00 | 0.00 | 67 | 1014.0 |
| 20260507082813 | 68 | 80 | 1.0 | 5.0 | 0.00 | 0.00 | 0.00 | 63 | 1014.0 |
| 20260507082312 | 69 | 4 | 3.0 | 6.0 | 0.00 | 0.00 | 0.00 | 65 | 1014.0 |
| 20260507081812 | 69 | 317 | 4.0 | 9.0 | 0.00 | 0.00 | 0.00 | 56 | 1014.0 |
| 20260507081313 | 69 | 286 | 2.0 | 5.0 | 0.00 | 0.00 | 0.00 | 55 | 1014.0 |
| 20260507080813 | 69 | 276 | 1.0 | 2.0 | 0.00 | 0.00 | 0.00 | 56 | 1014.0 |
| 20260507080313 | 69 | 232 | 2.0 | 3.0 | 0.00 | 0.00 | 0.00 | 56 | 1014.0 |
| 20260507075813 | 69 | 337 | 0.0 | 2.0 | 0.00 | 0.00 | 0.00 | 58 | 1014.0 |
| 20260507075313 | 68 | 75 | 1.0 | 2.0 | 0.00 | 0.00 | 0.00 | 62 | 1014.0 |
| 20260507074812 | 68 | 76 | 0.0 | 3.0 | 0.00 | 0.00 | 0.00 | 61 | 1014.0 |
| 20260507074312 | 68 | 76 | 0.0 | 3.0 | 0.00 | 0.00 | 0.00 | 65 | 1014.0 |
| 20260507073812 | 67 | 31 | 1.0 | 5.0 | 0.00 | 0.00 | 0.00 | 64 | 1014.0 |
| 20260507073313 | 68 | 31 | 1.0 | 3.0 | 0.00 | 0.00 | 0.00 | 63 | 1014.0 |
| 20260507072812 | 67 | 31 | 0.0 | 3.0 | 0.00 | 0.00 | 0.00 | 63 | 1014.0 |
| 20260507072313 | 67 | 30 | 1.0 | 3.0 | 0.00 | 0.00 | 0.00 | 66 | 1014.0 |
| 20260507071813 | 67 | 30 | 0.0 | 0.0 | 0.00 | 0.00 | 0.00 | 67 | 1014.0 |
| 20260507071314 | 66 | 30 | 0.0 | 1.0 | 0.00 | 0.00 | 0.00 | 69 | 1014.0 |
| 20260507070813 | 66 | 30 | 1.0 | 1.0 | 0.00 | 0.00 | 0.00 | 73 | 1014.0 |
| 20260507070312 | 66 | 30 | 1.0 | 2.0 | 0.00 | 0.00 | 0.00 | 72 | 1014.0 |
| 20260507065812 | 65 | 54 | 1.0 | 2.0 | 0.00 | 0.00 | 0.00 | 74 | 1014.0 |
| 20260507065312 | 65 | 82 | 2.0 | 2.0 | 0.00 | 0.00 | 0.00 | 75 | 1014.0 |
| 20260507064812 | 65 | 83 | 2.0 | 7.0 | 0.00 | 0.00 | 0.00 | 75 | 1014.0 |
| 20260507064312 | 64 | 105 | 1.0 | 1.0 | 0.00 | 0.00 | 0.00 | 80 | 1014.0 |
| 20260507063812 | 64 | 104 | 3.0 | 3.0 | 0.00 | 0.00 | 0.00 | 82 | 1014.0 |
| 20260507063312 | 63 | 101 | 1.0 | 2.0 | 0.00 | 0.00 | 0.00 | 83 | 1014.0 |
| 20260507062812 | 62 | 102 | 0.0 | 1.0 | 0.00 | 0.00 | 0.00 | 84 | 1014.0 |
| 20260507062312 | 62 | 102 | 0.0 | 1.0 | 0.00 | 0.00 | 0.00 | 85 | 1014.0 |
| 20260507061813 | 63 | 101 | 1.0 | 2.0 | 0.00 | 0.00 | 0.00 | 84 | 1014.0 |
| 20260507061312 | 63 | 101 | 2.0 | 5.0 | 0.00 | 0.00 | 0.00 | 83 | 1014.0 |
| 20260507060812 | 65 | 85 | 2.0 | 3.0 | 0.00 | 0.00 | 0.00 | 78 | 1014.0 |
| 20260507060312 | 64 | 240 | 3.0 | 3.0 | 0.00 | 0.00 | 0.00 | 75 | 1014.0 |
| 20260507055812 | 64 | 237 | 3.0 | 6.0 | 0.00 | 0.00 | 0.00 | 77 | 1014.0 |
| 20260507055312 | 63 | 255 | 4.0 | 7.0 | 0.00 | 0.00 | 0.00 | 78 | 1013.0 |
| 20260507054813 | 61 | 242 | 3.0 | 6.0 | 0.00 | 0.00 | 0.00 | 86 | 1013.0 |
| 20260507054312 | 59 | 223 | 1.0 | 2.0 | 0.00 | 0.00 | 0.00 | 93 | 1013.0 |
| 20260507053812 | 59 | 222 | 1.0 | 2.0 | 0.00 | 0.00 | 0.00 | 93 | 1013.0 |
| 20260507053312 | 58 | 221 | 0.0 | 0.0 | 0.00 | 0.00 | 0.00 | 94 | 1013.0 |
| 20260507052813 | 58 | 221 | 1.0 | 2.0 | 0.00 | 0.00 | 0.00 | 94 | 1013.0 |
| 20260507052312 | 58 | 223 | 0.0 | 0.0 | 0.00 | 0.00 | 0.00 | 94 | 1013.0 |
| 20260507051812 | 58 | 222 | 0.0 | 1.0 | 0.00 | 0.00 | 0.00 | 94 | 1013.0 |
| 20260507051313 | 58 | 222 | 1.0 | 1.0 | 0.00 | 0.00 | 0.00 | 94 | 1013.0 |
| 20260507050813 | 58 | 223 | 0.0 | 0.0 | 0.00 | 0.00 | 0.00 | 94 | 1013.0 |
| 20260507050313 | 58 | 223 | 1.0 | 2.0 | 0.00 | 0.00 | 0.00 | 93 | 1013.0 |
| 20260507045813 | 59 | 223 | 0.0 | 1.0 | 0.00 | 0.00 | 0.00 | 93 | 1013.0 |
| 20260507045314 | 59 | 228 | 2.0 | 2.0 | 0.00 | 0.00 | 0.00 | 94 | 1013.0 |
| 20260507044812 | 58 | 228 | 0.0 | 1.0 | 0.00 | 0.00 | 0.00 | 94 | 1013.0 |
| 20260507044312 | 58 | 228 | 1.0 | 2.0 | 0.00 | 0.00 | 0.00 | 94 | 1013.0 |
| 20260507043329 | 57 | 228 | 3.0 | 3.0 | 0.00 | 0.00 | 0.00 | 95 | 1013.0 |
| 20260507042815 | 57 | 227 | 2.0 | 3.0 | 0.00 | 0.00 | 0.00 | 96 | 1012.0 |
| 20260507042313 | 56 | 193 | 2.0 | 2.0 | 0.00 | 0.00 | 0.00 | 96 | 1012.0 |
| 20260507041812 | 56 | 193 | 0.0 | 2.0 | 0.00 | 0.00 | 0.00 | 96 | 1013.0 |
| 20260507041312 | 56 | 193 | 2.0 | 2.0 | 0.00 | 0.00 | 0.00 | 96 | 1013.0 |
| 20260507040812 | 56 | 193 | 1.0 | 1.0 | 0.00 | 0.00 | 0.00 | 96 | 1012.0 |
| 20260507040313 | 55 | 192 | 1.0 | 1.0 | 0.00 | 0.00 | 0.00 | 96 | 1012.0 |
| 20260507035812 | 55 | 192 | 0.0 | 0.0 | 0.00 | 0.00 | 0.00 | 96 | 1012.0 |
| 20260507035312 | 55 | 192 | 0.0 | 0.0 | 0.00 | 0.00 | 0.00 | 95 | 1012.0 |
| 20260507034813 | 56 | 192 | 0.0 | 1.0 | 0.00 | 0.00 | 0.00 | 95 | 1012.0 |
| 20260507034313 | 56 | 192 | 1.0 | 1.0 | 0.00 | 0.00 | 0.00 | 96 | 1012.0 |
| 20260507033813 | 56 | 192 | 0.0 | 2.0 | 0.00 | 0.00 | 0.00 | 96 | 1012.0 |
| 20260507033312 | 56 | 192 | 1.0 | 1.0 | 0.00 | 0.00 | 0.00 | 95 | 1012.0 |
| 20260507032814 | 56 | 191 | 2.0 | 2.0 | 0.00 | 0.00 | 0.00 | 95 | 1012.0 |
| 20260507032313 | 56 | 191 | 2.0 | 2.0 | 0.00 | 0.00 | 0.00 | 95 | 1012.0 |
| 20260507031813 | 56 | 191 | 1.0 | 1.0 | 0.00 | 0.00 | 0.00 | 95 | 1012.0 |
| 20260507031312 | 57 | 191 | 1.0 | 1.0 | 0.00 | 0.00 | 0.00 | 95 | 1012.0 |
| 20260507030812 | 57 | 191 | 1.0 | 2.0 | 0.00 | 0.00 | 0.00 | 94 | 1012.0 |
| 20260507030312 | 57 | 190 | 2.0 | 3.0 | 0.00 | 0.00 | 0.00 | 94 | 1012.0 |
| 20260507025813 | 57 | 322 | 1.0 | 1.0 | 0.00 | 0.00 | 0.00 | 94 | 1012.0 |
| 20260507025312 | 57 | 322 | 1.0 | 1.0 | 0.00 | 0.00 | 0.00 | 94 | 1012.0 |
| 20260507024812 | 57 | 322 | 0.0 | 1.0 | 0.00 | 0.00 | 0.00 | 93 | 1012.0 |
| 20260507024313 | 58 | 322 | 1.0 | 1.0 | 0.00 | 0.00 | 0.00 | 93 | 1012.0 |
| 20260507023813 | 58 | 322 | 1.0 | 2.0 | 0.00 | 0.00 | 0.00 | 93 | 1012.0 |
| 20260507023312 | 58 | 322 | 1.0 | 2.0 | 0.00 | 0.00 | 0.00 | 92 | 1012.0 |
| 20260507022813 | 58 | 322 | 1.0 | 1.0 | 0.00 | 0.00 | 0.00 | 92 | 1012.0 |
| 20260507022313 | 59 | 322 | 1.0 | 1.0 | 0.00 | 0.00 | 0.00 | 91 | 1012.0 |
| 20260507021813 | 59 | 322 | 0.0 | 1.0 | 0.00 | 0.00 | 0.00 | 92 | 1012.0 |
| 20260507021313 | 59 | 322 | 1.0 | 1.0 | 0.00 | 0.00 | 0.00 | 91 | 1012.0 |
| 20260507020812 | 59 | 322 | 2.0 | 2.0 | 0.00 | 0.00 | 0.00 | 91 | 1012.0 |
| 20260507020314 | 59 | 323 | 3.0 | 3.0 | 0.00 | 0.00 | 0.00 | 91 | 1012.0 |
| 20260507015812 | 59 | 323 | 0.0 | 0.0 | 0.00 | 0.00 | 0.00 | 91 | 1012.0 |
| 20260507015312 | 59 | 323 | 0.0 | 1.0 | 0.00 | 0.00 | 0.00 | 91 | 1012.0 |
| 20260507014813 | 59 | 323 | 0.0 | 0.0 | 0.00 | 0.00 | 0.00 | 91 | 1012.0 |
| 20260507014312 | 59 | 323 | 2.0 | 5.0 | 0.00 | 0.00 | 0.00 | 91 | 1012.0 |
| 20260507013812 | 59 | 323 | 2.0 | 2.0 | 0.00 | 0.00 | 0.00 | 91 | 1012.0 |
| 20260507012828 | 59 | 323 | 0.0 | 1.0 | 0.00 | 0.00 | 0.00 | 90 | 1012.0 |
| 20260507012312 | 60 | 323 | 1.0 | 2.0 | 0.00 | 0.00 | 0.00 | 89 | 1012.0 |
| 20260507011812 | 60 | 323 | 1.0 | 1.0 | 0.00 | 0.00 | 0.00 | 88 | 1012.0 |
| 20260507011313 | 60 | 323 | 0.0 | 0.0 | 0.00 | 0.00 | 0.00 | 88 | 1012.0 |
| 20260507010818 | 60 | 323 | 0.0 | 1.0 | 0.00 | 0.00 | 0.00 | 87 | 1012.0 |
| 20260507010312 | 60 | 323 | 1.0 | 2.0 | 0.00 | 0.00 | 0.00 | 87 | 1012.0 |
| 20260507005812 | 60 | 323 | 1.0 | 1.0 | 0.00 | 0.00 | 0.00 | 87 | 1012.0 |
| 20260507005312 | 60 | 323 | 2.0 | 3.0 | 0.00 | 0.00 | 0.00 | 87 | 1012.0 |
| 20260507004812 | 60 | 323 | 3.0 | 3.0 | 0.00 | 0.00 | 0.00 | 86 | 1012.0 |
| 20260507004313 | 61 | 324 | 1.0 | 2.0 | 0.00 | 0.00 | 0.00 | 85 | 1012.0 |
| 20260507003812 | 61 | 323 | 1.0 | 1.0 | 0.00 | 0.00 | 0.00 | 85 | 1012.0 |
| 20260507003313 | 61 | 323 | 1.0 | 1.0 | 0.00 | 0.00 | 0.00 | 84 | 1012.0 |
| 20260507002812 | 61 | 323 | 0.0 | 0.0 | 0.00 | 0.00 | 0.00 | 82 | 1012.0 |
| 20260507002314 | 61 | 323 | 0.0 | 1.0 | 0.00 | 0.00 | 0.00 | 82 | 1012.0 |
| 20260507001813 | 61 | 323 | 1.0 | 3.0 | 0.00 | 0.00 | 0.00 | 82 | 1012.0 |
| 20260507001312 | 61 | 324 | 4.0 | 5.0 | 0.00 | 0.00 | 0.00 | 82 | 1012.0 |
| 20260507000812 | 62 | 322 | 0.0 | 0.0 | 0.00 | 0.00 | 0.00 | 82 | 1012.0 |
| 20260507000320 | 62 | 322 | 1.0 | 2.0 | 0.00 | 0.00 | 0.00 | 82 | 1013.0 |
| 20260506235812 | 62 | 322 | 2.0 | 2.0 | 0.00 | 0.00 | 0.00 | 81 | 1012.0 |
| 20260506235312 | 62 | 322 | 0.0 | 1.0 | 0.00 | 0.00 | 0.00 | 80 | 1012.0 |
| 20260506234812 | 63 | 316 | 4.0 | 5.0 | 0.00 | 0.00 | 0.00 | 79 | 1012.0 |
| 20260506234312 | 63 | 211 | 2.0 | 3.0 | 0.00 | 0.00 | 0.00 | 78 | 1012.0 |
| 20260506233323 | 64 | 181 | 4.0 | 7.0 | 0.00 | 0.00 | 0.00 | 75 | 1012.0 |
| 20260506232812 | 63 | 285 | 2.0 | 7.0 | 0.00 | 0.00 | 0.00 | 77 | 1012.0 |
| 20260506232312 | 63 | 285 | 2.0 | 5.0 | 0.00 | 0.00 | 0.00 | 77 | 1012.0 |
| 20260506231812 | 64 | 305 | 5.0 | 7.0 | 0.00 | 0.00 | 0.00 | 76 | 1012.0 |
| 20260506231312 | 64 | 286 | 3.0 | 5.0 | 0.00 | 0.00 | 0.00 | 77 | 1012.0 |
| 20260506230813 | 64 | 207 | 4.0 | 7.0 | 0.00 | 0.00 | 0.00 | 75 | 1012.0 |
| 20260506230312 | 65 | 181 | 5.0 | 8.0 | 0.00 | 0.00 | 0.00 | 74 | 1012.0 |
| 20260506225812 | 65 | 227 | 6.0 | 9.0 | 0.00 | 0.00 | 0.00 | 74 | 1012.0 |
| 20260506225312 | 64 | 200 | 8.0 | 13.0 | 0.00 | 0.00 | 0.00 | 75 | 1012.0 |
| 20260506224812 | 64 | 212 | 5.0 | 10.0 | 0.00 | 0.00 | 0.00 | 76 | 1012.0 |
| 20260506224313 | 64 | 177 | 8.0 | 11.0 | 0.00 | 0.00 | 0.00 | 75 | 1012.0 |
| 20260506223815 | 64 | 202 | 6.0 | 10.0 | 0.00 | 0.00 | 0.00 | 76 | 1012.0 |
| 20260506223313 | 64 | 185 | 5.0 | 13.0 | 0.00 | 0.00 | 0.00 | 77 | 1012.0 |
| 20260506222812 | 64 | 174 | 6.0 | 9.0 | 0.00 | 0.00 | 0.00 | 77 | 1012.0 |
| 20260506222312 | 63 | 192 | 5.0 | 8.0 | 0.00 | 0.00 | 0.00 | 78 | 1012.0 |
| 20260506221812 | 63 | 180 | 3.0 | 6.0 | 0.00 | 0.00 | 0.00 | 78 | 1012.0 |
| 20260506221313 | 63 | 198 | 2.0 | 5.0 | 0.00 | 0.00 | 0.00 | 78 | 1012.0 |
| 20260506220812 | 63 | 184 | 2.0 | 2.0 | 0.00 | 0.00 | 0.00 | 78 | 1012.0 |
| 20260506220312 | 63 | 131 | 3.0 | 3.0 | 0.00 | 0.00 | 0.00 | 78 | 1012.0 |
| 20260506215813 | 63 | 217 | 1.0 | 5.0 | 0.00 | 0.00 | 0.07 | 79 | 1012.0 |
| 20260506215313 | 63 | 83 | 1.0 | 3.0 | 0.00 | 0.00 | 0.07 | 80 | 1012.0 |
| 20260506214812 | 62 | 47 | 0.0 | 2.0 | 0.00 | 0.00 | 0.07 | 82 | 1012.0 |
| 20260506214314 | 63 | 47 | 0.0 | 1.0 | 0.00 | 0.00 | 0.07 | 81 | 1012.0 |
| 20260506213813 | 63 | 47 | 2.0 | 3.0 | 0.00 | 0.00 | 0.07 | 81 | 1012.0 |
| 20260506213312 | 62 | 46 | 3.0 | 5.0 | 0.00 | 0.00 | 0.07 | 84 | 1012.0 |
| 20260506212812 | 60 | 123 | 2.0 | 2.0 | 0.00 | 0.00 | 0.07 | 90 | 1012.0 |
| 20260506212313 | 60 | 123 | 1.0 | 1.0 | 0.00 | 0.00 | 0.07 | 91 | 1012.0 |
| 20260506211812 | 60 | 123 | 1.0 | 1.0 | 0.00 | 0.00 | 0.07 | 91 | 1012.0 |
| 20260506211312 | 60 | 123 | 1.0 | 1.0 | 0.00 | 0.00 | 0.07 | 91 | 1012.0 |
| 20260506210813 | 60 | 123 | 1.0 | 2.0 | 0.00 | 0.00 | 0.07 | 91 | 1012.0 |
| 20260506210312 | 60 | 237 | 2.0 | 3.0 | 0.00 | 0.00 | 0.07 | 91 | 1012.0 |
| 20260506205813 | 60 | 238 | 1.0 | 2.0 | 0.00 | 0.00 | 0.07 | 92 | 1012.0 |
| 20260506205314 | 60 | 238 | 2.0 | 2.0 | 0.00 | 0.00 | 0.07 | 92 | 1012.0 |
| 20260506204813 | 60 | 239 | 1.0 | 2.0 | 0.00 | 0.00 | 0.07 | 90 | 1012.0 |
| 20260506204314 | 60 | 239 | 0.0 | 1.0 | 0.00 | 0.00 | 0.07 | 90 | 1012.0 |
| 20260506203813 | 60 | 239 | 0.0 | 2.0 | 0.00 | 0.00 | 0.07 | 90 | 1012.0 |
| 20260506203313 | 61 | 239 | 0.0 | 2.0 | 0.00 | 0.00 | 0.07 | 90 | 1012.0 |
| 20260506202813 | 61 | 239 | 0.0 | 1.0 | 0.00 | 0.00 | 0.07 | 89 | 1012.0 |
| 20260506202314 | 61 | 239 | 1.0 | 1.0 | 0.00 | 0.00 | 0.07 | 89 | 1012.0 |
| 20260506201813 | 60 | 239 | 1.0 | 1.0 | 0.00 | 0.00 | 0.07 | 90 | 1012.0 |
| 20260506201312 | 60 | 239 | 2.0 | 3.0 | 0.00 | 0.00 | 0.07 | 89 | 1012.0 |
| 20260506200812 | 61 | 240 | 0.0 | 1.0 | 0.00 | 0.00 | 0.07 | 88 | 1012.0 |
| 20260506200313 | 61 | 240 | 1.0 | 2.0 | 0.00 | 0.00 | 0.07 | 88 | 1012.0 |
| 20260506195813 | 61 | 240 | 0.0 | 0.0 | 0.00 | 0.00 | 0.07 | 87 | 1012.0 |
| 20260506195319 | 61 | 240 | 0.0 | 1.0 | 0.00 | 0.00 | 0.07 | 87 | 1012.0 |
| 20260506194813 | 62 | 234 | 3.0 | 3.0 | 0.00 | 0.00 | 0.07 | 86 | 1012.0 |
| 20260506194312 | 62 | 336 | 0.0 | 2.0 | 0.00 | 0.00 | 0.07 | 85 | 1012.0 |
| 20260506193813 | 62 | 336 | 1.0 | 2.0 | 0.00 | 0.00 | 0.07 | 85 | 1012.0 |
| 20260506193312 | 62 | 336 | 3.0 | 3.0 | 0.00 | 0.00 | 0.07 | 85 | 1012.0 |
| 20260506192812 | 62 | 337 | 0.0 | 2.0 | 0.00 | 0.00 | 0.07 | 84 | 1012.0 |
| 20260506192312 | 62 | 337 | 1.0 | 2.0 | 0.00 | 0.00 | 0.07 | 85 | 1012.0 |
| 20260506191812 | 62 | 337 | 0.0 | 0.0 | 0.00 | 0.00 | 0.07 | 84 | 1012.0 |
| 20260506191312 | 62 | 337 | 1.0 | 1.0 | 0.00 | 0.00 | 0.07 | 83 | 1012.0 |
| 20260506190813 | 62 | 337 | 0.0 | 0.0 | 0.00 | 0.00 | 0.07 | 83 | 1012.0 |
| 20260506190312 | 63 | 337 | 0.0 | 0.0 | 0.00 | 0.00 | 0.07 | 83 | 1012.0 |
| 20260506185813 | 63 | 337 | 1.0 | 2.0 | 0.00 | 0.00 | 0.07 | 82 | 1011.0 |
| 20260506185312 | 63 | 337 | 0.0 | 0.0 | 0.00 | 0.00 | 0.07 | 80 | 1012.0 |
| 20260506184812 | 64 | 337 | 2.0 | 3.0 | 0.00 | 0.00 | 0.07 | 80 | 1011.0 |
| 20260506184313 | 64 | 337 | 3.0 | 5.0 | 0.00 | 0.00 | 0.07 | 80 | 1011.0 |
| 20260506183814 | 64 | 0 | 3.0 | 3.0 | 0.00 | 0.00 | 0.07 | 79 | 1011.0 |
| 20260506183312 | 64 | 357 | 5.0 | 8.0 | 0.00 | 0.00 | 0.07 | 80 | 1011.0 |
| 20260506182813 | 64 | 356 | 5.0 | 8.0 | 0.00 | 0.00 | 0.07 | 79 | 1011.0 |
| 20260506182312 | 64 | 352 | 4.0 | 6.0 | 0.00 | 0.00 | 0.07 | 79 | 1011.0 |
| 20260506181812 | 64 | 345 | 3.0 | 6.0 | 0.00 | 0.00 | 0.07 | 78 | 1010.0 |
| 20260506181312 | 64 | 311 | 5.0 | 7.0 | 0.00 | 0.00 | 0.07 | 78 | 1011.0 |
| 20260506180813 | 65 | 326 | 4.0 | 5.0 | 0.00 | 0.00 | 0.07 | 78 | 1010.0 |
| 20260506180313 | 65 | 305 | 5.0 | 8.0 | 0.00 | 0.00 | 0.07 | 77 | 1010.0 |
| 20260506175812 | 66 | 280 | 1.0 | 7.0 | 0.00 | 0.00 | 0.07 | 75 | 1010.0 |
| 20260506175312 | 67 | 274 | 2.0 | 3.0 | 0.00 | 0.00 | 0.07 | 74 | 1010.0 |
| 20260506174812 | 67 | 221 | 1.0 | 1.0 | 0.00 | 0.00 | 0.07 | 73 | 1010.0 |
| 20260506174313 | 68 | 221 | 1.0 | 1.0 | 0.00 | 0.00 | 0.07 | 71 | 1010.0 |
| 20260506173813 | 68 | 221 | 1.0 | 3.0 | 0.00 | 0.00 | 0.07 | 71 | 1010.0 |
| 20260506173312 | 68 | 198 | 1.0 | 1.0 | 0.00 | 0.00 | 0.07 | 69 | 1010.0 |
| 20260506172812 | 69 | 220 | 2.0 | 3.0 | 0.00 | 0.00 | 0.07 | 68 | 1010.0 |
| 20260506172312 | 69 | 196 | 1.0 | 3.0 | 0.00 | 0.00 | 0.07 | 67 | 1010.0 |
| 20260506171813 | 69 | 200 | 3.0 | 5.0 | 0.00 | 0.00 | 0.07 | 68 | 1010.0 |
| 20260506171313 | 69 | 226 | 3.0 | 5.0 | 0.00 | 0.00 | 0.07 | 68 | 1010.0 |
| 20260506170813 | 69 | 205 | 5.0 | 7.0 | 0.00 | 0.00 | 0.07 | 67 | 1010.0 |
| 20260506170313 | 69 | 195 | 6.0 | 9.0 | 0.00 | 0.00 | 0.07 | 66 | 1010.0 |
| 20260506165813 | 69 | 192 | 5.0 | 8.0 | 0.00 | 0.00 | 0.07 | 66 | 1010.0 |
| 20260506165312 | 70 | 195 | 4.0 | 7.0 | 0.00 | 0.00 | 0.07 | 66 | 1010.0 |
| 20260506164813 | 70 | 190 | 4.0 | 7.0 | 0.00 | 0.00 | 0.07 | 65 | 1010.0 |
| 20260506164312 | 71 | 199 | 5.0 | 14.0 | 0.00 | 0.00 | 0.07 | 64 | 1010.0 |
| 20260506163813 | 71 | 198 | 8.0 | 13.0 | 0.00 | 0.00 | 0.07 | 63 | 1010.0 |
| 20260506163312 | 71 | 178 | 7.0 | 11.0 | 0.00 | 0.00 | 0.07 | 62 | 1010.0 |
| 20260506162814 | 71 | 165 | 10.0 | 13.0 | 0.00 | 0.00 | 0.07 | 63 | 1010.0 |
| 20260506162312 | 71 | 165 | 7.0 | 11.0 | 0.00 | 0.00 | 0.07 | 63 | 1010.0 |
| 20260506161812 | 71 | 219 | 9.0 | 15.0 | 0.00 | 0.00 | 0.07 | 62 | 1010.0 |
| 20260506161313 | 71 | 209 | 5.0 | 11.0 | 0.00 | 0.00 | 0.07 | 63 | 1010.0 |
| 20260506160812 | 71 | 156 | 10.0 | 13.0 | 0.00 | 0.00 | 0.07 | 64 | 1010.0 |
| 20260506160315 | 71 | 190 | 6.0 | 11.0 | 0.00 | 0.00 | 0.07 | 64 | 1010.0 |
| 20260506155814 | 71 | 182 | 7.0 | 11.0 | 0.00 | 0.00 | 0.07 | 62 | 1010.0 |
| 20260506155312 | 71 | 164 | 8.0 | 15.0 | 0.00 | 0.00 | 0.07 | 62 | 1010.0 |
| 20260506154812 | 72 | 179 | 11.0 | 14.0 | 0.00 | 0.00 | 0.07 | 61 | 1010.0 |
| 20260506154313 | 72 | 182 | 8.0 | 11.0 | 0.00 | 0.00 | 0.07 | 61 | 1010.0 |
| 20260506153814 | 72 | 175 | 9.0 | 13.0 | 0.00 | 0.00 | 0.07 | 61 | 1010.0 |
| 20260506153312 | 72 | 180 | 9.0 | 14.0 | 0.00 | 0.00 | 0.07 | 60 | 1010.0 |
| 20260506152813 | 73 | 181 | 9.0 | 14.0 | 0.00 | 0.00 | 0.07 | 61 | 1010.0 |
| 20260506152316 | 72 | 179 | 9.0 | 15.0 | 0.00 | 0.00 | 0.07 | 62 | 1010.0 |
| 20260506151812 | 73 | 192 | 4.0 | 10.0 | 0.00 | 0.00 | 0.07 | 63 | 1010.0 |
| 20260506151319 | 72 | 199 | 5.0 | 11.0 | 0.00 | 0.00 | 0.07 | 62 | 1010.0 |
| 20260506150812 | 72 | 200 | 9.0 | 15.0 | 0.00 | 0.00 | 0.07 | 64 | 1010.0 |
| 20260506150312 | 72 | 174 | 5.0 | 8.0 | 0.00 | 0.00 | 0.07 | 66 | 1010.0 |
| 20260506145812 | 72 | 164 | 6.0 | 11.0 | 0.00 | 0.00 | 0.07 | 63 | 1010.0 |
| 20260506145312 | 72 | 190 | 9.0 | 11.0 | 0.00 | 0.00 | 0.07 | 64 | 1010.0 |
| 20260506144813 | 72 | 166 | 5.0 | 13.0 | 0.00 | 0.00 | 0.07 | 61 | 1010.0 |
| 20260506144313 | 72 | 165 | 8.0 | 15.0 | 0.00 | 0.00 | 0.07 | 64 | 1010.0 |
| 20260506143812 | 71 | 151 | 9.0 | 11.0 | 0.00 | 0.00 | 0.07 | 64 | 1010.0 |
| 20260506143315 | 71 | 196 | 7.0 | 14.0 | 0.00 | 0.00 | 0.07 | 63 | 1010.0 |
| 20260506142814 | 72 | 190 | 7.0 | 16.0 | 0.00 | 0.00 | 0.07 | 63 | 1010.0 |
| 20260506142315 | 72 | 182 | 12.0 | 18.0 | 0.00 | 0.00 | 0.07 | 60 | 1010.0 |
| 20260506141812 | 73 | 157 | 14.0 | 17.0 | 0.00 | 0.00 | 0.07 | 61 | 1010.0 |
| 20260506141313 | 73 | 206 | 13.0 | 20.0 | 0.00 | 0.00 | 0.07 | 60 | 1010.0 |
| 20260506140813 | 72 | 187 | 11.0 | 16.0 | 0.00 | 0.00 | 0.07 | 62 | 1010.0 |
| 20260506140312 | 72 | 204 | 10.0 | 15.0 | 0.00 | 0.00 | 0.07 | 63 | 1010.0 |
| 20260506135813 | 72 | 198 | 9.0 | 20.0 | 0.00 | 0.00 | 0.07 | 61 | 1010.0 |
| 20260506135312 | 73 | 205 | 10.0 | 16.0 | 0.00 | 0.00 | 0.07 | 61 | 1010.0 |
| 20260506134812 | 72 | 177 | 7.0 | 14.0 | 0.00 | 0.00 | 0.07 | 62 | 1010.0 |
| 20260506134313 | 72 | 202 | 8.0 | 15.0 | 0.00 | 0.00 | 0.07 | 63 | 1011.0 |
| 20260506133813 | 72 | 175 | 9.0 | 13.0 | 0.00 | 0.00 | 0.07 | 62 | 1010.0 |
| 20260506133313 | 72 | 180 | 7.0 | 15.0 | 0.00 | 0.00 | 0.07 | 61 | 1011.0 |